Allentown, PA

3:33 PM EST on December 11, 2019 (GMT -0500)
Allentown

Weather History for KXLL - June, 2019

Change the Weather History Date:

Wednesday, June 12, 2019

  Actual Average (WUND) Record (WUND)
Temperature  
Mean Temperature - -  
Max Temperature - - - (-1)
Min Temperature - - - (-1)
Moisture  
Dew Point -    
Average Humidity    
Maximum Humidity    
Minimum Humidity    
Precipitation  
Precipitation 0.00 in - - ()
Sea Level Pressure  
Sea Level Pressure 30.15 in    
Wind  
Wind Speed 4 mph ()    
Max Wind Speed 16 mph    
Max Gust Speed 20 mph    
Visibility 10.0 miles    
Events      
Averages and records for this station are not official NWS values.
T = Trace of Precipitation, MM = Missing Value Source: Averaged Metar Reports

Daily Weather History Graph

Daily Weather History Graph

Search for Another Location

Airport or City:

Astronomy

Jun. 12, 2019 Rise Set
Actual Time 5:30 AM EDT 8:33 PM EDT
Civil Twilight 4:57 AM EDT 9:06 PM EDT
Nautical Twilight 4:15 AM EDT 9:48 PM EDT
Astronomical Twilight 3:26 AM EDT 10:37 PM EDT
Moon 3:36 PM EDT (6/12) 2:45 AM EDT (6/12)
Length of Visible Light 16h 08m
Length of Day
15h 02m
Waxing Gibbous, 76% of the Moon is Illuminated
Jun 12
Waxing Gibbous
Jun 17
Full
Jun 25
Last Quarter
Jul 2
New
Jul 9
First Quarter

Hourly Weather History & Observations

Time (EDT) Temp. Dew Point Humidity Pressure Visibility Wind Dir Wind Speed Gust Speed Precip Events Conditions
12:15 AM - - N/A% 30.15 in 10.0 mi Calm Calm - N/A   Clear
12:35 AM - - N/A% 30.15 in 10.0 mi Calm Calm - N/A   Clear
12:55 AM - - N/A% 30.15 in 10.0 mi Calm Calm - N/A   Clear
1:15 AM - - N/A% 30.15 in 10.0 mi Calm Calm - N/A   Clear
1:35 AM - - N/A% 30.15 in 10.0 mi Calm Calm - N/A   Clear
1:55 AM - - N/A% 30.15 in 10.0 mi Calm Calm - N/A   Clear
2:15 AM - - N/A% 30.15 in 10.0 mi Calm Calm - N/A   Clear
2:35 AM - - N/A% 30.15 in 10.0 mi Calm Calm - N/A   Clear
2:55 AM - - N/A% 30.15 in 10.0 mi Calm Calm - N/A   Clear
3:15 AM - - N/A% 30.15 in 10.0 mi Calm Calm - N/A   Clear
3:35 AM - - N/A% 30.15 in 10.0 mi Calm Calm - N/A   Clear
3:55 AM - - N/A% 30.16 in 10.0 mi Calm Calm - N/A   Clear
4:15 AM - - N/A% 30.16 in 10.0 mi Calm Calm - N/A   Clear
4:35 AM - - N/A% 30.17 in 10.0 mi Calm Calm - N/A   Clear
4:55 AM - - N/A% 30.18 in 10.0 mi Calm Calm - N/A   Clear
5:15 AM - - N/A% 30.18 in 10.0 mi Calm Calm - N/A   Clear
5:35 AM - - N/A% 30.19 in 10.0 mi Calm Calm - N/A   Clear
5:55 AM - - N/A% 30.20 in 10.0 mi Calm Calm - N/A   Clear
6:15 AM - - N/A% 30.20 in 10.0 mi Calm Calm - N/A   Clear
6:35 AM - - N/A% 30.21 in 10.0 mi Calm Calm - N/A   Clear
6:55 AM - - N/A% 30.21 in 10.0 mi Calm Calm - N/A   Clear
7:15 AM - - N/A% 30.21 in 10.0 mi Calm Calm - N/A   Clear
7:35 AM - - N/A% 30.21 in 10.0 mi Calm Calm - N/A   Clear
7:55 AM - - N/A% 30.22 in 10.0 mi Calm Calm - N/A   Clear
8:15 AM - - N/A% 30.22 in 10.0 mi NNE 4.6 mph - N/A   Clear
8:35 AM - - N/A% 30.22 in 10.0 mi NE 5.8 mph - N/A   Clear
8:55 AM - - N/A% 30.22 in 10.0 mi NE 3.5 mph - N/A   Clear
9:15 AM - - N/A% 30.22 in 10.0 mi NNE 6.9 mph - N/A   Clear
9:55 AM - - N/A% 30.22 in 10.0 mi NE 5.8 mph - N/A   Clear
10:15 AM - - N/A% 30.22 in 10.0 mi NE 8.1 mph - N/A   Clear
10:35 AM - - N/A% 30.21 in 10.0 mi NE 4.6 mph - N/A   Clear
10:55 AM - - N/A% 30.21 in 10.0 mi East 6.9 mph - N/A   Clear
11:15 AM - - N/A% 30.21 in 10.0 mi SE 5.8 mph - N/A   Clear
11:35 AM - - N/A% 30.20 in 10.0 mi ESE 10.4 mph - N/A   Clear
11:55 AM - - N/A% 30.20 in 10.0 mi East 9.2 mph - N/A   Clear
12:15 PM - - N/A% 30.19 in 10.0 mi SE 6.9 mph - N/A   Clear
12:35 PM - - N/A% 30.19 in 10.0 mi SE 8.1 mph - N/A   Clear
12:55 PM - - N/A% 30.18 in 10.0 mi SE 10.4 mph 16.1 mph N/A   Clear
1:15 PM - - N/A% 30.17 in 10.0 mi South 5.8 mph 9.2 mph N/A   Clear
1:35 PM - - N/A% 30.16 in 10.0 mi SSE 12.7 mph 18.4 mph N/A   Clear
1:55 PM - - N/A% 30.16 in 10.0 mi East 9.2 mph 16.1 mph N/A   Clear
2:15 PM - - N/A% 30.15 in 10.0 mi SSE 11.5 mph 16.1 mph N/A   Clear
2:35 PM - - N/A% 30.15 in 10.0 mi SE 11.5 mph 17.3 mph N/A   Clear
2:55 PM - - N/A% 30.14 in 10.0 mi SSE 5.8 mph - N/A   Scattered Clouds
3:15 PM - - N/A% 30.14 in 10.0 mi SE 11.5 mph 17.3 mph N/A   Mostly Cloudy
3:35 PM - - N/A% 30.13 in 10.0 mi SE 8.1 mph 18.4 mph N/A   Scattered Clouds
3:55 PM - - N/A% 30.12 in 10.0 mi SE 10.4 mph 17.3 mph N/A   Mostly Cloudy
4:15 PM - - N/A% 30.12 in 10.0 mi South 11.5 mph 18.4 mph N/A   Mostly Cloudy
4:35 PM - - N/A% 30.11 in 10.0 mi SSE 12.7 mph 17.3 mph N/A   Mostly Cloudy
4:55 PM - - N/A% 30.11 in 10.0 mi SSE 6.9 mph - N/A   Mostly Cloudy
5:15 PM - - N/A% 30.11 in 10.0 mi SE 16.1 mph 19.6 mph N/A   Mostly Cloudy
5:35 PM - - N/A% 30.10 in 10.0 mi SE 12.7 mph - N/A   Mostly Cloudy
5:55 PM - - N/A% 30.10 in 10.0 mi SE 10.4 mph 16.1 mph N/A   Scattered Clouds
6:15 PM - - N/A% 30.10 in 10.0 mi SSE 12.7 mph 17.3 mph N/A   Scattered Clouds
6:35 PM - - N/A% 30.11 in 10.0 mi SSE 10.4 mph - N/A   Clear
6:55 PM - - N/A% 30.10 in 10.0 mi SE 9.2 mph - N/A   Clear
7:15 PM - - N/A% 30.10 in 10.0 mi SSE 8.1 mph - N/A   Clear
7:35 PM - - N/A% 30.10 in 10.0 mi SSE 9.2 mph - N/A   Clear
7:55 PM - - N/A% 30.10 in 10.0 mi SE 6.9 mph - N/A   Clear
8:15 PM - - N/A% 30.10 in 10.0 mi SE 6.9 mph - N/A   Clear
8:35 PM - - N/A% 30.10 in 10.0 mi SE 9.2 mph - N/A   Clear
8:55 PM - - N/A% 30.10 in 10.0 mi ESE 9.2 mph - N/A   Clear
9:15 PM - - N/A% 30.10 in 10.0 mi SE 8.1 mph - N/A   Clear
9:35 PM - - N/A% 30.10 in 10.0 mi SE 10.4 mph 17.3 mph N/A   Clear
9:55 PM - - N/A% 30.10 in 10.0 mi ESE 10.4 mph - N/A   Clear
10:15 PM - - N/A% 30.10 in 10.0 mi ESE 10.4 mph - N/A   Clear
10:35 PM - - N/A% 30.09 in 10.0 mi ESE 10.4 mph - N/A   Clear
10:55 PM - - N/A% 30.09 in 10.0 mi ESE 11.5 mph - N/A   Clear
11:15 PM - - N/A% 30.09 in 10.0 mi ESE 9.2 mph - N/A   Clear
11:35 PM - - N/A% 30.08 in 10.0 mi ESE 10.4 mph - N/A   Mostly Cloudy
11:55 PM - - N/A% 30.07 in 10.0 mi ESE 8.1 mph - N/A   Mostly Cloudy